Regional Weather Roundup
Issued by NWS

Home | Current Version | Previous Version | Text Only | Print | Product List | Glossary On
Versions: 1 2 3 4 5 6 7 8 9 10 11 12 13 14 15 16 17 18 19 20 21 22 23 24 25 26 27 28 29 30 31 32 33 34 35 36 37 38 39 40 41 42 43 44 45 46 47 48 49 50
000
ASUS44 KOUN 191200
RWROK

WEATHER ROUNDUP FOR OKLAHOMA
NATIONAL WEATHER SERVICE NORMAN OK
700 AM CDT TUE SEP 19 2017

NOTE: "FAIR" INDICATES FEW OR NO CLOUDS BELOW 12,000 FEET WITH NO
      SIGNIFICANT WEATHER AND/OR OBSTRUCTIONS TO VISIBILITY.

OKZ001>007-009>012-014-015-017-191300-
NORTHWEST OKLAHOMA AND THE PANHANDLE

CITY           SKY/WX    TMP DP  RH WIND       PRES   REMARKS
GAGE           CLEAR     70  62  76 S22G29    29.80F
6HR MIN TEMP:  70; 6HR MAX TEMP:  72;

GUYMON         CLEAR     64  62  93 S10       29.80S
ENID/WOODRING  MOCLDY    70  68  94 E9        29.84F
$$

OKZ016-021>023-033>039-044-045-191300-
SOUTHWEST OKLAHOMA

CITY           SKY/WX    TMP DP  RH WIND       PRES   REMARKS
LAWTON/REGL    CLEAR     72  71  97 S7        29.86S
6HR MIN TEMP:  71; 6HR MAX TEMP:  74;

LAWTON/FT SILL CLEAR     71  71 100 S7        29.85S
FREDERICK      CLEAR     70  67  90 SE6       29.83R
CLINTON        CLEAR     69  64  84 S21       29.86R
HOBART         CLEAR     71  66  84 S15       29.85S
ALTUS AFB      CLEAR     67  67 100 SE7       29.85R
$$

OKZ018>020-024>031-191300-
CENTRAL OKLAHOMA

CITY           SKY/WX    TMP DP  RH WIND       PRES   REMARKS
OKLAHOMA CITY  PTCLDY    70  69  97 S7        29.87R
6HR MIN TEMP:  69; 6HR MAX TEMP:  71;

OKC/WILEY POST CLEAR     72  70  93 S13       29.86R
OKC/TINKER AFB CLEAR     72  69  92 S12       29.87R
STILLWATER     MOCLDY    70  67  90 E6        29.87F
GUTHRIE        CLOUDY    73  69  87 S9        29.85S
$$

OKZ008-013-054>072-191300-
NORTHEAST OKLAHOMA

CITY           SKY/WX    TMP DP  RH WIND       PRES   REMARKS
TULSA          CLOUDY    72  67  84 SE6       29.88R
6HR MIN TEMP:  71; 6HR MAX TEMP:  74;

TULSA/JONES    MOCLDY    68  66  93 CALM      29.88S
PONCA CITY     TSTM      73  67  81 VRB7      29.87F
BARTLESVILLE   CLOUDY    68  64  87 S6        29.88F
MUSKOGEE       CLEAR     67  66  97 SE7       29.90S
$$

OKZ032-040>043-046>053-073>077-191300-
SOUTH CENTRAL/SOUTHEAST OKLAHOMA

CITY           SKY/WX    TMP DP  RH WIND       PRES   REMARKS
MCALESTER      CLEAR     73  70  90 S5        29.91R
$$





USA.gov is the U.S. government's official web portal to all federal, state and local government web resources and services.